| time (UTC) | temp F | wind direction | speed MPH | gust MPH | rain 1hr in | rain 24hr in | rain mn in | humidity % | barometer mb |
| 20260903194022 | 79 | 211 | 1.0 | 6.0 | 0.00 | 0.03 | 0.03 | 78 | 1009.5 |
| 20260903194010 | 80 | 211 | 1.0 | 1.0 | 0.00 | 0.03 | 0.03 | 77 | 1008.6 |
| 20260903193518 | 79 | 0 | 0.0 | 4.0 | 0.00 | 0.03 | 0.03 | 78 | 1009.5 |
| 20260903193511 | 80 | 159 | 0.0 | 0.0 | 0.00 | 0.03 | 0.03 | 77 | 1008.7 |
| 20260903193048 | 79 | 0 | 0.0 | 5.0 | 0.00 | 0.03 | 0.03 | 78 | 1009.7 |
| 20260903193011 | 80 | 159 | 0.0 | 0.0 | 0.00 | 0.03 | 0.03 | 77 | 1008.9 |
| 20260903192523 | 79 | 0 | 0.0 | 5.0 | 0.00 | 0.03 | 0.03 | 76 | 1009.8 |
| 20260903192023 | 79 | 164 | 1.0 | 4.0 | 0.00 | 0.03 | 0.03 | 77 | 1009.9 |
| 20260903192011 | 80 | 164 | 2.0 | 0.0 | 0.00 | 0.03 | 0.03 | 77 | 1009.1 |
| 20260903191542 | 79 | 0 | 0.0 | 4.0 | 0.00 | 0.03 | 0.03 | 78 | 1009.9 |
| 20260903191511 | 80 | 95 | 0.0 | 0.0 | 0.00 | 0.03 | 0.03 | 78 | 1009.2 |
| 20260903191021 | 79 | 95 | 2.0 | 4.0 | 0.00 | 0.03 | 0.03 | 81 | 1009.9 |
| 20260903191011 | 80 | 74 | 3.0 | 0.0 | 0.00 | 0.03 | 0.03 | 80 | 1009.2 |
| 20260903190521 | 79 | 0 | 0.0 | 0.0 | 0.00 | 0.03 | 0.03 | 78 | 1009.9 |
| 20260903190511 | 79 | 68 | 0.0 | 0.0 | 0.00 | 0.03 | 0.03 | 77 | 1009.2 |
| 20260903190043 | 79 | 0 | 0.0 | 0.0 | 0.00 | 0.03 | 0.03 | 80 | 1010.0 |
| 20260903190011 | 79 | 127 | 0.0 | 0.0 | 0.00 | 0.03 | 0.03 | 79 | 1009.2 |
| 20260903185520 | 79 | 0 | 0.0 | 0.0 | 0.00 | 0.03 | 0.03 | 80 | 1009.8 |
| 20260903185511 | 79 | 127 | 0.0 | 0.0 | 0.00 | 0.03 | 0.03 | 79 | 1009.1 |
| 20260903185020 | 79 | 0 | 0.0 | 0.0 | 0.00 | 0.03 | 0.03 | 78 | 1010.0 |
| 20260903185011 | 79 | 126 | 0.0 | 0.0 | 0.00 | 0.03 | 0.03 | 78 | 1009.2 |
| 20260903184538 | 79 | 0 | 0.0 | 0.0 | 0.00 | 0.03 | 0.03 | 79 | 1009.9 |
| 20260903184511 | 80 | 126 | 0.0 | 0.0 | 0.00 | 0.03 | 0.03 | 78 | 1009.1 |
| 20260903184020 | 79 | 0 | 0.0 | 0.0 | 0.00 | 0.03 | 0.03 | 79 | 1010.0 |
| 20260903184011 | 80 | 127 | 0.0 | 0.0 | 0.00 | 0.03 | 0.03 | 78 | 1009.2 |
| 20260903183519 | 79 | 0 | 0.0 | 0.0 | 0.00 | 0.03 | 0.03 | 75 | 1010.2 |
| 20260903183043 | 80 | 0 | 0.0 | 0.0 | 0.00 | 0.03 | 0.03 | 78 | 1009.9 |
| 20260903183010 | 80 | 127 | 0.0 | 0.0 | 0.00 | 0.03 | 0.03 | 77 | 1009.2 |
| 20260903182522 | 79 | 0 | 0.0 | 0.0 | 0.00 | 0.03 | 0.03 | 78 | 1010.0 |
| 20260903182511 | 80 | 127 | 0.0 | 0.0 | 0.00 | 0.03 | 0.03 | 77 | 1009.2 |
| 20260903182022 | 79 | 0 | 0.0 | 1.0 | 0.00 | 0.03 | 0.03 | 80 | 1010.0 |
| 20260903182011 | 80 | 126 | 0.0 | 0.0 | 0.00 | 0.03 | 0.03 | 79 | 1009.2 |
| 20260903181541 | 79 | 0 | 0.0 | 1.0 | 0.00 | 0.03 | 0.03 | 81 | 1009.9 |
| 20260903181511 | 80 | 124 | 0.0 | 0.0 | 0.00 | 0.03 | 0.03 | 80 | 1009.1 |
| 20260903181018 | 79 | 0 | 0.0 | 3.0 | 0.00 | 0.03 | 0.03 | 80 | 1010.0 |
| 20260903181011 | 79 | 124 | 0.0 | 0.0 | 0.00 | 0.03 | 0.03 | 79 | 1009.2 |
| 20260903180518 | 78 | 0 | 0.0 | 3.0 | 0.00 | 0.03 | 0.03 | 81 | 1010.1 |
| 20260903180511 | 79 | 114 | 0.0 | 0.0 | 0.00 | 0.03 | 0.03 | 81 | 1009.3 |
| 20260903180047 | 78 | 0 | 1.0 | 3.0 | 0.00 | 0.03 | 0.03 | 82 | 1010.0 |
| 20260903180011 | 78 | 95 | 0.0 | 0.0 | 0.00 | 0.03 | 0.03 | 82 | 1009.1 |
| 20260903175519 | 77 | 0 | 0.0 | 5.0 | 0.00 | 0.03 | 0.03 | 85 | 1010.1 |
| 20260903175020 | 77 | 0 | 0.0 | 6.0 | 0.00 | 0.03 | 0.03 | 82 | 1010.0 |
| 20260903175011 | 77 | 210 | 0.0 | 0.0 | 0.00 | 0.03 | 0.03 | 82 | 1009.3 |
| 20260903174539 | 77 | 168 | 0.0 | 6.0 | 0.00 | 0.03 | 0.03 | 80 | 1010.3 |
| 20260903174021 | 77 | 150 | 0.0 | 5.0 | 0.00 | 0.03 | 0.03 | 79 | 1010.4 |
| 20260903174011 | 78 | 150 | 4.0 | 0.0 | 0.00 | 0.03 | 0.03 | 79 | 1009.5 |
| 20260903173522 | 77 | 139 | 1.0 | 4.0 | 0.00 | 0.03 | 0.03 | 79 | 1010.6 |
| 20260903173510 | 78 | 139 | 0.0 | 0.0 | 0.00 | 0.03 | 0.03 | 79 | 1009.7 |
| 20260903173044 | 78 | 136 | 1.0 | 4.0 | 0.00 | 0.03 | 0.03 | 78 | 1010.7 |
| 20260903173011 | 78 | 136 | 2.0 | 0.0 | 0.00 | 0.03 | 0.03 | 78 | 1009.8 |
| 20260903172524 | 78 | 188 | 0.0 | 11.0 | 0.00 | 0.03 | 0.03 | 77 | 1010.8 |
| 20260903172511 | 78 | 188 | 0.0 | 1.0 | 0.00 | 0.03 | 0.03 | 77 | 1009.8 |
| 20260903172021 | 78 | 177 | 3.0 | 11.0 | 0.00 | 0.03 | 0.03 | 76 | 1011.0 |
| 20260903172011 | 79 | 177 | 2.0 | 1.0 | 0.00 | 0.03 | 0.03 | 76 | 1010.0 |
| 20260903171547 | 78 | 167 | 2.0 | 11.0 | 0.00 | 0.03 | 0.03 | 76 | 1010.9 |
| 20260903171511 | 79 | 188 | 2.0 | 1.0 | 0.00 | 0.03 | 0.03 | 76 | 1009.9 |
| 20260903171019 | 79 | 178 | 2.0 | 6.0 | 0.00 | 0.03 | 0.03 | 77 | 1010.8 |
| 20260903171011 | 79 | 178 | 2.0 | 1.0 | 0.00 | 0.03 | 0.03 | 76 | 1009.8 |
| 20260903170518 | 79 | 222 | 2.0 | 6.0 | 0.00 | 0.03 | 0.03 | 78 | 1010.7 |
| 20260903170511 | 79 | 221 | 4.0 | 1.0 | 0.00 | 0.03 | 0.03 | 78 | 1009.8 |
| 20260903170045 | 79 | 197 | 0.0 | 5.0 | 0.00 | 0.03 | 0.03 | 77 | 1010.8 |
| 20260903170011 | 79 | 197 | 2.0 | 0.0 | 0.00 | 0.03 | 0.03 | 77 | 1009.8 |
| 20260903165522 | 79 | 0 | 1.0 | 5.0 | 0.00 | 0.03 | 0.03 | 79 | 1010.7 |
| 20260903165511 | 79 | 184 | 0.0 | 0.0 | 0.00 | 0.03 | 0.03 | 79 | 1009.8 |
| 20260903165024 | 79 | 195 | 0.0 | 5.0 | 0.00 | 0.03 | 0.03 | 80 | 1010.8 |
| 20260903165011 | 79 | 195 | 4.0 | 0.0 | 0.00 | 0.03 | 0.03 | 80 | 1009.8 |
| 20260903164544 | 78 | 0 | 0.0 | 5.0 | 0.00 | 0.03 | 0.03 | 81 | 1010.6 |
| 20260903164511 | 79 | 183 | 0.0 | 0.0 | 0.00 | 0.03 | 0.03 | 80 | 1009.7 |
| 20260903164019 | 78 | 0 | 1.0 | 9.0 | 0.00 | 0.03 | 0.03 | 82 | 1010.8 |
| 20260903164011 | 78 | 183 | 0.0 | 1.0 | 0.00 | 0.03 | 0.03 | 82 | 1009.8 |
| 20260903163519 | 78 | 174 | 2.0 | 9.0 | 0.00 | 0.03 | 0.03 | 82 | 1010.8 |
| 20260903163511 | 78 | 174 | 1.0 | 1.0 | 0.00 | 0.03 | 0.03 | 81 | 1009.8 |
| 20260903163045 | 78 | 172 | 2.0 | 6.0 | 0.00 | 0.03 | 0.03 | 82 | 1010.8 |
| 20260903163011 | 78 | 171 | 6.0 | 1.0 | 0.00 | 0.03 | 0.03 | 82 | 1009.8 |
| 20260903162518 | 77 | 174 | 2.0 | 6.0 | 0.00 | 0.03 | 0.03 | 83 | 1010.7 |
| 20260903162512 | 78 | 174 | 3.0 | 1.0 | 0.00 | 0.03 | 0.03 | 82 | 1009.8 |
| 20260903162019 | 77 | 196 | 2.0 | 6.0 | 0.00 | 0.03 | 0.03 | 82 | 1010.8 |
| 20260903162011 | 78 | 196 | 3.0 | 1.0 | 0.00 | 0.03 | 0.03 | 82 | 1009.8 |
| 20260903161542 | 77 | 174 | 1.0 | 6.0 | 0.00 | 0.03 | 0.03 | 83 | 1010.8 |
| 20260903161511 | 77 | 174 | 2.0 | 1.0 | 0.00 | 0.03 | 0.03 | 83 | 1009.8 |
| 20260903161018 | 77 | 0 | 0.0 | 11.0 | 0.00 | 0.03 | 0.03 | 84 | 1010.7 |
| 20260903161011 | 77 | 224 | 0.0 | 1.0 | 0.00 | 0.03 | 0.03 | 83 | 1009.7 |
| 20260903160522 | 77 | 0 | 1.0 | 11.0 | 0.00 | 0.03 | 0.03 | 82 | 1010.6 |
| 20260903160511 | 77 | 163 | 0.0 | 1.0 | 0.00 | 0.03 | 0.03 | 81 | 1009.6 |
| 20260903160043 | 77 | 158 | 2.0 | 7.0 | 0.00 | 0.03 | 0.03 | 82 | 1010.7 |
| 20260903160011 | 77 | 157 | 4.0 | 1.0 | 0.00 | 0.03 | 0.03 | 81 | 1009.7 |
| 20260903155521 | 77 | 165 | 3.0 | 7.0 | 0.00 | 0.03 | 0.03 | 81 | 1010.8 |
| 20260903155021 | 78 | 176 | 3.0 | 7.0 | 0.00 | 0.03 | 0.03 | 81 | 1010.9 |
| 20260903155011 | 78 | 170 | 4.0 | 1.0 | 0.00 | 0.03 | 0.03 | 80 | 1010.0 |
| 20260903154542 | 78 | 182 | 2.0 | 5.0 | 0.00 | 0.03 | 0.03 | 81 | 1010.8 |
| 20260903154511 | 78 | 182 | 2.0 | 0.0 | 0.00 | 0.03 | 0.03 | 80 | 1009.9 |
| 20260903154019 | 78 | 199 | 2.0 | 5.0 | 0.00 | 0.03 | 0.03 | 81 | 1010.8 |
| 20260903154011 | 78 | 199 | 2.0 | 0.0 | 0.00 | 0.03 | 0.03 | 80 | 1009.9 |
| 20260903153519 | 78 | 224 | 2.0 | 6.0 | 0.00 | 0.03 | 0.03 | 82 | 1010.6 |
| 20260903153511 | 79 | 229 | 2.0 | 0.0 | 0.00 | 0.03 | 0.03 | 81 | 1009.7 |
| 20260903153039 | 78 | 0 | 2.0 | 6.0 | 0.00 | 0.03 | 0.03 | 82 | 1010.7 |
| 20260903153011 | 79 | 215 | 1.0 | 0.0 | 0.00 | 0.03 | 0.03 | 81 | 1009.7 |
| 20260903152523 | 78 | 181 | 3.0 | 5.0 | 0.00 | 0.03 | 0.03 | 81 | 1010.7 |
| 20260903152511 | 79 | 181 | 4.0 | 0.0 | 0.00 | 0.03 | 0.03 | 81 | 1009.8 |
| 20260903152024 | 78 | 187 | 0.0 | 5.0 | 0.00 | 0.03 | 0.03 | 82 | 1010.6 |
| 20260903152011 | 79 | 187 | 2.0 | 0.0 | 0.00 | 0.03 | 0.03 | 82 | 1009.7 |
| 20260903151551 | 78 | 0 | 0.0 | 5.0 | 0.00 | 0.03 | 0.03 | 83 | 1010.5 |
| 20260903151511 | 79 | 186 | 0.0 | 0.0 | 0.00 | 0.03 | 0.03 | 83 | 1009.6 |
| 20260903151018 | 78 | 0 | 1.0 | 5.0 | 0.00 | 0.03 | 0.03 | 83 | 1010.6 |
| 20260903151011 | 79 | 201 | 0.0 | 0.0 | 0.00 | 0.03 | 0.03 | 82 | 1009.7 |
| 20260903150518 | 78 | 0 | 0.0 | 5.0 | 0.00 | 0.03 | 0.03 | 82 | 1010.6 |
| 20260903150511 | 78 | 157 | 0.0 | 0.0 | 0.00 | 0.03 | 0.03 | 82 | 1009.7 |
| 20260903150011 | 78 | 157 | 1.0 | 0.0 | 0.00 | 0.03 | 0.03 | 82 | 1009.7 |
| 20260903145520 | 78 | 172 | 1.0 | 6.0 | 0.00 | 0.03 | 0.03 | 83 | 1010.6 |
| 20260903145511 | 78 | 171 | 0.0 | 0.0 | 0.00 | 0.03 | 0.03 | 83 | 1009.7 |
| 20260903145020 | 78 | 174 | 1.0 | 6.0 | 0.00 | 0.03 | 0.03 | 83 | 1010.6 |
| 20260903145011 | 78 | 163 | 2.0 | 1.0 | 0.00 | 0.03 | 0.03 | 83 | 1009.7 |
| 20260903144542 | 78 | 124 | 1.0 | 5.0 | 0.00 | 0.03 | 0.03 | 86 | 1010.7 |
| 20260903144511 | 78 | 124 | 1.0 | 0.0 | 0.00 | 0.03 | 0.03 | 85 | 1009.8 |
| 20260903144022 | 77 | 179 | 2.0 | 5.0 | 0.00 | 0.03 | 0.03 | 86 | 1010.7 |
| 20260903144011 | 78 | 179 | 2.0 | 0.0 | 0.00 | 0.03 | 0.03 | 86 | 1009.8 |
| 20260903143519 | 76 | 132 | 1.0 | 3.0 | 0.00 | 0.03 | 0.03 | 87 | 1010.7 |
| 20260903143511 | 77 | 132 | 2.0 | 0.0 | 0.00 | 0.03 | 0.03 | 87 | 1009.8 |
| 20260903143040 | 76 | 87 | 0.0 | 2.0 | 0.00 | 0.03 | 0.03 | 87 | 1010.7 |
| 20260903142520 | 76 | 0 | 0.0 | 3.0 | 0.00 | 0.03 | 0.03 | 89 | 1010.7 |
| 20260903142017 | 75 | 0 | 0.0 | 5.0 | 0.00 | 0.03 | 0.03 | 90 | 1010.7 |
| 20260903142011 | 76 | 86 | 0.0 | 0.0 | 0.00 | 0.03 | 0.03 | 89 | 1009.8 |
| 20260903141546 | 74 | 86 | 2.0 | 5.0 | 0.00 | 0.03 | 0.03 | 90 | 1010.8 |
| 20260903141022 | 74 | 0 | 0.0 | 2.0 | 0.00 | 0.03 | 0.03 | 91 | 1010.8 |
| 20260903141011 | 74 | 207 | 0.0 | 0.0 | 0.00 | 0.03 | 0.03 | 91 | 1009.9 |
| 20260903140519 | 73 | 0 | 0.0 | 2.0 | 0.00 | 0.03 | 0.03 | 92 | 1010.9 |
| 20260903140511 | 74 | 207 | 0.0 | 0.0 | 0.00 | 0.03 | 0.03 | 91 | 1009.9 |
| 20260903140042 | 73 | 207 | 0.0 | 4.0 | 0.00 | 0.03 | 0.03 | 91 | 1010.8 |
| 20260903140011 | 73 | 207 | 1.0 | 0.0 | 0.00 | 0.03 | 0.03 | 91 | 1009.9 |
| 20260903135518 | 72 | 0 | 0.0 | 4.0 | 0.00 | 0.03 | 0.03 | 91 | 1010.9 |
| 20260903135511 | 73 | 207 | 0.0 | 0.0 | 0.00 | 0.03 | 0.03 | 91 | 1009.9 |
| 20260903135019 | 72 | 207 | 1.0 | 4.0 | 0.00 | 0.03 | 0.03 | 92 | 1010.8 |
| 20260903135011 | 72 | 207 | 3.0 | 0.0 | 0.00 | 0.03 | 0.03 | 91 | 1009.9 |
| 20260903134550 | 72 | 203 | 1.0 | 4.0 | 0.00 | 0.03 | 0.03 | 92 | 1010.6 |
| 20260903134511 | 72 | 203 | 2.0 | 0.0 | 0.00 | 0.03 | 0.03 | 91 | 1009.8 |
| 20260903134022 | 72 | 180 | 0.0 | 3.0 | 0.00 | 0.03 | 0.03 | 92 | 1010.7 |
| 20260903134011 | 72 | 180 | 1.0 | 0.0 | 0.00 | 0.03 | 0.03 | 91 | 1009.9 |
| 20260903133518 | 71 | 0 | 0.0 | 2.0 | 0.00 | 0.03 | 0.03 | 92 | 1010.7 |
| 20260903133511 | 72 | 180 | 0.0 | 0.0 | 0.00 | 0.03 | 0.03 | 91 | 1009.8 |
| 20260903133039 | 71 | 0 | 0.0 | 2.0 | 0.00 | 0.03 | 0.03 | 92 | 1010.7 |
| 20260903132518 | 71 | 0 | 0.0 | 2.0 | 0.00 | 0.03 | 0.03 | 92 | 1010.6 |
| 20260903132019 | 71 | 0 | 0.0 | 2.0 | 0.01 | 0.03 | 0.03 | 92 | 1010.8 |
| 20260903132011 | 71 | 180 | 0.0 | 0.0 | 0.02 | 0.03 | 0.03 | 91 | 1009.9 |
| 20260903131545 | 71 | 0 | 0.0 | 2.0 | 0.03 | 0.03 | 0.03 | 91 | 1010.5 |
| 20260903131511 | 71 | 180 | 0.0 | 0.0 | 0.03 | 0.03 | 0.03 | 90 | 1009.8 |
| 20260903131019 | 71 | 0 | 0.0 | 0.0 | 0.03 | 0.03 | 0.03 | 90 | 1010.6 |
| 20260903130518 | 71 | 0 | 0.0 | 3.0 | 0.03 | 0.03 | 0.03 | 90 | 1010.8 |
| 20260903130511 | 71 | 180 | 0.0 | 0.0 | 0.03 | 0.03 | 0.03 | 90 | 1010.0 |
| 20260903130043 | 71 | 0 | 0.0 | 3.0 | 0.03 | 0.03 | 0.03 | 90 | 1010.9 |
| 20260903130011 | 71 | 180 | 0.0 | 0.0 | 0.03 | 0.03 | 0.03 | 90 | 1010.0 |
| 20260903125522 | 71 | 180 | 0.0 | 6.0 | 0.03 | 0.03 | 0.03 | 90 | 1010.9 |
| 20260903125511 | 71 | 180 | 2.0 | 0.0 | 0.03 | 0.03 | 0.03 | 89 | 1010.1 |
| 20260903125019 | 71 | 176 | 1.0 | 8.0 | 0.03 | 0.03 | 0.03 | 90 | 1010.9 |
| 20260903125012 | 71 | 176 | 1.0 | 1.0 | 0.03 | 0.03 | 0.03 | 89 | 1010.1 |
| 20260903124550 | 71 | 176 | 2.0 | 9.0 | 0.03 | 0.03 | 0.03 | 89 | 1010.8 |
| 20260903124019 | 71 | 187 | 2.0 | 11.0 | 0.03 | 0.03 | 0.03 | 89 | 1010.7 |
| 20260903124011 | 72 | 187 | 3.0 | 1.0 | 0.03 | 0.03 | 0.03 | 89 | 1009.9 |
| 20260903123522 | 72 | 172 | 3.0 | 11.0 | 0.03 | 0.03 | 0.03 | 89 | 1010.7 |
| 20260903123511 | 72 | 172 | 2.0 | 1.0 | 0.03 | 0.03 | 0.03 | 88 | 1009.9 |
| 20260903123047 | 72 | 202 | 2.0 | 12.0 | 0.03 | 0.03 | 0.03 | 89 | 1010.7 |
| 20260903123011 | 72 | 159 | 9.0 | 1.0 | 0.03 | 0.03 | 0.03 | 89 | 1010.0 |
| 20260903122523 | 72 | 208 | 2.0 | 15.0 | 0.03 | 0.03 | 0.03 | 90 | 1010.9 |
| 20260903122512 | 73 | 203 | 6.0 | 2.0 | 0.03 | 0.03 | 0.03 | 89 | 1010.1 |
| 20260903122020 | 72 | 218 | 7.0 | 15.0 | 0.01 | 0.01 | 0.01 | 89 | 1011.1 |
| 20260903122011 | 73 | 219 | 3.0 | 2.0 | 0.01 | 0.01 | 0.01 | 89 | 1010.2 |
| 20260903121541 | 72 | 176 | 2.0 | 9.0 | 0.00 | 0.00 | 0.00 | 90 | 1010.9 |
| 20260903121021 | 72 | 202 | 3.0 | 9.0 | 0.00 | 0.00 | 0.00 | 90 | 1011.0 |
| 20260903121011 | 72 | 207 | 4.0 | 1.0 | 0.00 | 0.00 | 0.00 | 90 | 1010.2 |
| 20260903120522 | 72 | 186 | 1.0 | 4.0 | 0.00 | 0.00 | 0.00 | 90 | 1011.1 |
| 20260903120511 | 72 | 185 | 4.0 | 0.0 | 0.00 | 0.00 | 0.00 | 89 | 1010.2 |
| 20260903120043 | 72 | 0 | 0.0 | 3.0 | 0.00 | 0.00 | 0.00 | 90 | 1011.0 |
| 20260903115519 | 72 | 187 | 0.0 | 3.0 | 0.00 | 0.00 | 0.00 | 90 | 1010.7 |
| 20260903115023 | 72 | 119 | 0.0 | 2.0 | 0.00 | 0.00 | 0.00 | 89 | 1010.8 |
| 20260903114541 | 72 | 0 | 0.0 | 2.0 | 0.00 | 0.00 | 0.00 | 90 | 1010.4 |
| 20260903114511 | 72 | 119 | 0.0 | 0.0 | 0.00 | 0.00 | 0.00 | 89 | 1009.6 |
| 20260903114021 | 72 | 0 | 0.0 | 0.0 | 0.00 | 0.00 | 0.00 | 90 | 1010.5 |
| 20260903114011 | 72 | 119 | 0.0 | 0.0 | 0.00 | 0.00 | 0.00 | 89 | 1009.7 |
| 20260903113519 | 72 | 0 | 0.0 | 2.0 | 0.00 | 0.00 | 0.00 | 90 | 1010.4 |
| 20260903113511 | 72 | 118 | 0.0 | 0.0 | 0.00 | 0.00 | 0.00 | 89 | 1009.7 |
| 20260903113051 | 72 | 0 | 0.0 | 2.0 | 0.00 | 0.00 | 0.00 | 90 | 1010.4 |
| 20260903113011 | 72 | 118 | 0.0 | 0.0 | 0.00 | 0.00 | 0.00 | 89 | 1009.7 |
| 20260903112523 | 72 | 0 | 0.0 | 0.0 | 0.00 | 0.00 | 0.00 | 90 | 1010.3 |
| 20260903112511 | 72 | 166 | 0.0 | 0.0 | 0.00 | 0.00 | 0.00 | 89 | 1009.6 |
| 20260903112025 | 72 | 0 | 0.0 | 0.0 | 0.00 | 0.00 | 0.00 | 90 | 1010.3 |
| 20260903112011 | 72 | 166 | 0.0 | 0.0 | 0.00 | 0.00 | 0.00 | 89 | 1009.5 |
| 20260903111542 | 72 | 0 | 0.0 | 0.0 | 0.00 | 0.00 | 0.00 | 90 | 1010.4 |
| 20260903111511 | 72 | 166 | 0.0 | 0.0 | 0.00 | 0.00 | 0.00 | 89 | 1009.7 |
| 20260903111021 | 72 | 0 | 0.0 | 0.0 | 0.00 | 0.00 | 0.00 | 90 | 1010.6 |
| 20260903110521 | 72 | 0 | 0.0 | 0.0 | 0.00 | 0.00 | 0.00 | 90 | 1010.7 |
| 20260903110511 | 72 | 166 | 0.0 | 0.0 | 0.00 | 0.00 | 0.00 | 89 | 1009.8 |
| 20260903110043 | 71 | 0 | 0.0 | 0.0 | 0.00 | 0.00 | 0.00 | 89 | 1010.7 |
| 20260903110011 | 72 | 107 | 0.0 | 0.0 | 0.00 | 0.00 | 0.00 | 89 | 1009.9 |
| 20260903105520 | 71 | 0 | 0.0 | 0.0 | 0.00 | 0.00 | 0.00 | 89 | 1010.9 |
| 20260903105511 | 72 | 87 | 0.0 | 0.0 | 0.00 | 0.00 | 0.00 | 89 | 1010.0 |
| 20260903105021 | 72 | 0 | 0.0 | 0.0 | 0.00 | 0.00 | 0.00 | 89 | 1011.0 |
| 20260903105011 | 72 | 70 | 0.0 | 0.0 | 0.00 | 0.00 | 0.00 | 88 | 1010.2 |
| 20260903104538 | 72 | 0 | 0.0 | 0.0 | 0.00 | 0.00 | 0.00 | 89 | 1011.0 |
| 20260903104511 | 72 | 70 | 0.0 | 0.0 | 0.00 | 0.00 | 0.00 | 88 | 1010.1 |
| 20260903104017 | 72 | 0 | 0.0 | 0.0 | 0.00 | 0.00 | 0.00 | 89 | 1010.8 |
| 20260903103523 | 72 | 0 | 0.0 | 0.0 | 0.00 | 0.00 | 0.00 | 89 | 1010.8 |
| 20260903103510 | 72 | 70 | 0.0 | 0.0 | 0.00 | 0.00 | 0.00 | 88 | 1010.0 |
| 20260903103044 | 72 | 0 | 0.0 | 0.0 | 0.00 | 0.00 | 0.00 | 89 | 1010.8 |
| 20260903103010 | 72 | 70 | 0.0 | 0.0 | 0.00 | 0.00 | 0.00 | 88 | 1010.0 |
| 20260903102521 | 72 | 0 | 0.0 | 0.0 | 0.00 | 0.00 | 0.00 | 89 | 1010.8 |
| 20260903102020 | 72 | 0 | 0.0 | 0.0 | 0.00 | 0.00 | 0.00 | 89 | 1010.6 |
| 20260903102010 | 72 | 70 | 0.0 | 0.0 | 0.00 | 0.00 | 0.00 | 88 | 1009.9 |
| 20260903101539 | 72 | 0 | 0.0 | 3.0 | 0.00 | 0.00 | 0.00 | 89 | 1010.3 |
| 20260903101510 | 72 | 70 | 0.0 | 0.0 | 0.00 | 0.00 | 0.00 | 88 | 1009.6 |
| 20260903101020 | 72 | 0 | 1.0 | 5.0 | 0.00 | 0.00 | 0.00 | 89 | 1010.3 |
| 20260903101010 | 72 | 70 | 0.0 | 0.0 | 0.00 | 0.00 | 0.00 | 88 | 1009.6 |
| 20260903100521 | 72 | 70 | 1.0 | 5.0 | 0.00 | 0.00 | 0.00 | 89 | 1010.3 |
| 20260903100510 | 72 | 70 | 0.0 | 0.0 | 0.00 | 0.00 | 0.00 | 88 | 1009.6 |
| 20260903100039 | 72 | 68 | 2.0 | 5.0 | 0.00 | 0.00 | 0.00 | 89 | 1010.2 |
| 20260903100010 | 72 | 69 | 3.0 | 0.0 | 0.00 | 0.00 | 0.00 | 88 | 1009.5 |
| 20260903095522 | 72 | 70 | 2.0 | 4.0 | 0.00 | 0.00 | 0.00 | 89 | 1010.3 |
| 20260903095510 | 72 | 70 | 2.0 | 0.0 | 0.00 | 0.00 | 0.00 | 88 | 1009.5 |
| 20260903095018 | 72 | 0 | 0.0 | 4.0 | 0.00 | 0.00 | 0.00 | 89 | 1010.3 |
| 20260903095010 | 72 | 70 | 0.0 | 0.0 | 0.00 | 0.00 | 0.00 | 88 | 1009.6 |
| 20260903094554 | 72 | 0 | 1.0 | 4.0 | 0.00 | 0.00 | 0.00 | 89 | 1010.2 |
| 20260903094510 | 72 | 69 | 0.0 | 0.0 | 0.00 | 0.00 | 0.00 | 88 | 1009.6 |
| 20260903094020 | 72 | 70 | 1.0 | 4.0 | 0.00 | 0.00 | 0.00 | 89 | 1010.3 |
| 20260903094010 | 72 | 70 | 2.0 | 0.0 | 0.00 | 0.00 | 0.00 | 88 | 1009.5 |
| 20260903093520 | 72 | 0 | 0.0 | 3.0 | 0.00 | 0.00 | 0.00 | 89 | 1010.3 |
| 20260903093043 | 72 | 0 | 1.0 | 4.0 | 0.00 | 0.00 | 0.00 | 89 | 1010.3 |
| 20260903093010 | 72 | 70 | 0.0 | 0.0 | 0.00 | 0.00 | 0.00 | 88 | 1009.5 |
| 20260903092521 | 72 | 69 | 1.0 | 4.0 | 0.00 | 0.00 | 0.00 | 89 | 1010.3 |
| 20260903092510 | 72 | 69 | 1.0 | 0.0 | 0.00 | 0.00 | 0.00 | 89 | 1009.5 |
| 20260903092021 | 72 | 69 | 2.0 | 5.0 | 0.00 | 0.00 | 0.00 | 89 | 1010.1 |
| 20260903092010 | 72 | 69 | 3.0 | 0.0 | 0.00 | 0.00 | 0.00 | 89 | 1009.4 |
| 20260903091552 | 71 | 67 | 2.0 | 5.0 | 0.00 | 0.00 | 0.00 | 89 | 1010.2 |
| 20260903091510 | 72 | 68 | 3.0 | 0.0 | 0.00 | 0.00 | 0.00 | 89 | 1009.5 |
| 20260903091021 | 71 | 66 | 2.0 | 5.0 | 0.00 | 0.00 | 0.00 | 89 | 1010.3 |
| 20260903091010 | 72 | 66 | 2.0 | 0.0 | 0.00 | 0.00 | 0.00 | 89 | 1009.5 |
| 20260903090521 | 71 | 67 | 1.0 | 3.0 | 0.00 | 0.00 | 0.00 | 89 | 1010.2 |
| 20260903090510 | 72 | 67 | 4.0 | 0.0 | 0.00 | 0.00 | 0.00 | 89 | 1009.4 |
| 20260903090038 | 71 | 68 | 1.0 | 3.0 | 0.00 | 0.00 | 0.00 | 89 | 1010.2 |
| 20260903090010 | 72 | 68 | 1.0 | 0.0 | 0.00 | 0.00 | 0.00 | 88 | 1009.4 |
| 20260903085520 | 71 | 0 | 0.0 | 1.0 | 0.00 | 0.01 | 0.00 | 89 | 1010.2 |
| 20260903085022 | 71 | 0 | 0.0 | 4.0 | 0.00 | 0.01 | 0.00 | 89 | 1010.3 |
| 20260903085010 | 72 | 66 | 0.0 | 0.0 | 0.00 | 0.01 | 0.00 | 88 | 1009.6 |
| 20260903084544 | 71 | 0 | 0.0 | 4.0 | 0.00 | 0.01 | 0.00 | 89 | 1010.1 |
| 20260903084510 | 72 | 66 | 0.0 | 0.0 | 0.00 | 0.01 | 0.00 | 88 | 1009.4 |
| 20260903084018 | 71 | 65 | 1.0 | 4.0 | 0.00 | 0.01 | 0.00 | 89 | 1010.0 |
| 20260903084010 | 72 | 66 | 2.0 | 0.0 | 0.00 | 0.01 | 0.00 | 88 | 1009.3 |
| 20260903083520 | 71 | 67 | 1.0 | 3.0 | 0.00 | 0.01 | 0.00 | 89 | 1010.1 |
| 20260903083510 | 72 | 67 | 1.0 | 0.0 | 0.00 | 0.01 | 0.00 | 88 | 1009.3 |
| 20260903083038 | 71 | 67 | 1.0 | 3.0 | 0.00 | 0.01 | 0.00 | 88 | 1010.2 |
| 20260903083010 | 72 | 67 | 0.0 | 0.0 | 0.00 | 0.01 | 0.00 | 88 | 1009.4 |
| 20260903082524 | 72 | 66 | 0.0 | 3.0 | 0.00 | 0.01 | 0.00 | 88 | 1010.0 |
| 20260903082510 | 72 | 66 | 3.0 | 0.0 | 0.00 | 0.01 | 0.00 | 88 | 1009.4 |
| 20260903082021 | 72 | 0 | 0.0 | 0.0 | 0.00 | 0.01 | 0.00 | 88 | 1010.1 |
| 20260903082010 | 72 | 66 | 0.0 | 0.0 | 0.00 | 0.01 | 0.00 | 87 | 1009.4 |
| 20260903081542 | 72 | 0 | 0.0 | 0.0 | 0.00 | 0.01 | 0.00 | 87 | 1010.2 |
| 20260903081510 | 72 | 66 | 0.0 | 0.0 | 0.00 | 0.01 | 0.00 | 87 | 1009.5 |
| 20260903081022 | 72 | 0 | 0.0 | 0.0 | 0.00 | 0.01 | 0.00 | 87 | 1010.2 |
| 20260903081010 | 72 | 66 | 0.0 | 0.0 | 0.00 | 0.01 | 0.00 | 87 | 1009.5 |
| 20260903080521 | 72 | 0 | 0.0 | 0.0 | 0.00 | 0.01 | 0.00 | 87 | 1010.3 |
| 20260903080510 | 72 | 66 | 0.0 | 0.0 | 0.00 | 0.01 | 0.00 | 87 | 1009.6 |
| 20260903080048 | 72 | 0 | 0.0 | 0.0 | 0.00 | 0.01 | 0.00 | 87 | 1010.4 |
| 20260903075521 | 72 | 0 | 0.0 | 0.0 | 0.00 | 0.08 | 0.00 | 87 | 1010.3 |
| 20260903075510 | 73 | 66 | 0.0 | 0.0 | 0.00 | 0.08 | 0.00 | 86 | 1009.6 |
| 20260903075020 | 72 | 0 | 0.0 | 0.0 | 0.00 | 0.08 | 0.00 | 86 | 1010.2 |
| 20260903075010 | 73 | 66 | 0.0 | 0.0 | 0.00 | 0.08 | 0.00 | 86 | 1009.5 |
| 20260903074546 | 72 | 0 | 0.0 | 0.0 | 0.00 | 0.08 | 0.00 | 86 | 1010.4 |
| 20260903074510 | 73 | 66 | 0.0 | 0.0 | 0.00 | 0.08 | 0.00 | 86 | 1009.6 |
| 20260903074020 | 73 | 0 | 0.0 | 0.0 | 0.00 | 0.08 | 0.00 | 86 | 1010.5 |
| 20260903074010 | 73 | 66 | 0.0 | 0.0 | 0.00 | 0.08 | 0.00 | 86 | 1009.7 |
| 20260903073520 | 73 | 0 | 0.0 | 0.0 | 0.00 | 0.08 | 0.00 | 86 | 1010.4 |
| 20260903073510 | 73 | 66 | 0.0 | 0.0 | 0.00 | 0.08 | 0.00 | 86 | 1009.7 |
| 20260903073041 | 73 | 0 | 0.0 | 0.0 | 0.00 | 0.08 | 0.00 | 86 | 1010.5 |
| 20260903073010 | 73 | 66 | 0.0 | 0.0 | 0.00 | 0.08 | 0.00 | 86 | 1009.8 |
| 20260903072517 | 73 | 0 | 0.0 | 0.0 | 0.00 | 0.08 | 0.00 | 86 | 1010.5 |
| 20260903072510 | 73 | 66 | 0.0 | 0.0 | 0.00 | 0.08 | 0.00 | 86 | 1009.7 |
| 20260903072024 | 73 | 0 | 0.0 | 0.0 | 0.00 | 0.08 | 0.00 | 86 | 1010.7 |
| 20260903072010 | 74 | 66 | 0.0 | 0.0 | 0.00 | 0.08 | 0.00 | 86 | 1009.8 |
| 20260903071542 | 73 | 0 | 0.0 | 0.0 | 0.00 | 0.08 | 0.00 | 86 | 1010.6 |
| 20260903071510 | 74 | 66 | 0.0 | 0.0 | 0.00 | 0.08 | 0.00 | 86 | 1009.9 |
| 20260903071022 | 73 | 0 | 0.0 | 0.0 | 0.00 | 0.08 | 0.00 | 86 | 1010.6 |
| 20260903071010 | 74 | 66 | 0.0 | 0.0 | 0.00 | 0.08 | 0.00 | 85 | 1009.8 |
| 20260903070521 | 73 | 0 | 0.0 | 0.0 | 0.00 | 0.08 | 0.00 | 86 | 1010.7 |
| 20260903070510 | 74 | 66 | 0.0 | 0.0 | 0.00 | 0.08 | 0.00 | 85 | 1009.9 |
| 20260903070039 | 73 | 0 | 0.0 | 2.0 | 0.00 | 0.08 | 0.00 | 86 | 1010.7 |
| 20260903070010 | 74 | 66 | 0.0 | 0.0 | 0.00 | 0.08 | 0.00 | 85 | 1009.9 |
| 20260903065521 | 73 | 0 | 0.0 | 4.0 | 0.00 | 0.10 | 0.00 | 86 | 1010.7 |
| 20260903065510 | 74 | 66 | 0.0 | 0.0 | 0.00 | 0.10 | 0.00 | 85 | 1009.9 |
| 20260903065020 | 73 | 0 | 1.0 | 4.0 | 0.00 | 0.10 | 0.00 | 86 | 1010.7 |
| 20260903065010 | 74 | 66 | 0.0 | 0.0 | 0.00 | 0.10 | 0.00 | 85 | 1009.9 |
| 20260903064541 | 73 | 66 | 2.0 | 4.0 | 0.00 | 0.10 | 0.00 | 86 | 1010.8 |
| 20260903064510 | 74 | 66 | 3.0 | 0.0 | 0.00 | 0.10 | 0.00 | 85 | 1009.9 |
| 20260903064018 | 73 | 65 | 0.0 | 3.0 | 0.00 | 0.10 | 0.00 | 85 | 1010.8 |
| 20260903064010 | 74 | 66 | 3.0 | 0.0 | 0.00 | 0.10 | 0.00 | 84 | 1010.0 |
| 20260903063522 | 74 | 0 | 0.0 | 3.0 | 0.00 | 0.10 | 0.00 | 85 | 1010.8 |
| 20260903063510 | 74 | 67 | 0.0 | 0.0 | 0.00 | 0.10 | 0.00 | 84 | 1010.1 |
| 20260903063054 | 74 | 0 | 0.0 | 4.0 | 0.00 | 0.10 | 0.00 | 85 | 1010.9 |
| 20260903063010 | 74 | 67 | 0.0 | 0.0 | 0.00 | 0.10 | 0.00 | 84 | 1010.1 |
| 20260903062521 | 74 | 67 | 1.0 | 4.0 | 0.00 | 0.10 | 0.00 | 84 | 1010.9 |
| 20260903062510 | 74 | 67 | 3.0 | 0.0 | 0.00 | 0.10 | 0.00 | 84 | 1010.1 |
| 20260903062024 | 74 | 68 | 1.0 | 4.0 | 0.00 | 0.10 | 0.00 | 84 | 1010.9 |
| 20260903062010 | 74 | 68 | 2.0 | 0.0 | 0.00 | 0.10 | 0.00 | 83 | 1010.0 |
| 20260903061541 | 74 | 0 | 0.0 | 0.0 | 0.00 | 0.10 | 0.00 | 84 | 1010.9 |
| 20260903061510 | 74 | 68 | 0.0 | 0.0 | 0.00 | 0.10 | 0.00 | 83 | 1010.1 |
| 20260903061024 | 74 | 0 | 0.0 | 0.0 | 0.00 | 0.10 | 0.00 | 83 | 1010.9 |
| 20260903061010 | 74 | 68 | 0.0 | 0.0 | 0.00 | 0.10 | 0.00 | 83 | 1010.1 |
| 20260903060520 | 74 | 0 | 0.0 | 4.0 | 0.00 | 0.10 | 0.00 | 83 | 1010.9 |
| 20260903060511 | 74 | 68 | 0.0 | 0.0 | 0.00 | 0.10 | 0.00 | 83 | 1010.1 |
| 20260903060042 | 74 | 0 | 0.0 | 4.0 | 0.00 | 0.10 | 0.00 | 83 | 1010.9 |
| 20260903060010 | 75 | 68 | 0.0 | 0.0 | 0.00 | 0.10 | 0.00 | 83 | 1010.0 |
| 20260903055520 | 74 | 68 | 1.0 | 4.0 | 0.00 | 0.10 | 0.00 | 83 | 1010.8 |
| 20260903055510 | 75 | 68 | 2.0 | 0.0 | 0.00 | 0.10 | 0.00 | 83 | 1010.1 |
| 20260903055020 | 74 | 0 | 0.0 | 3.0 | 0.00 | 0.10 | 0.00 | 83 | 1010.8 |
| 20260903055010 | 75 | 69 | 0.0 | 0.0 | 0.00 | 0.10 | 0.00 | 83 | 1010.0 |
| 20260903054545 | 74 | 69 | 1.0 | 3.0 | 0.00 | 0.10 | 0.00 | 83 | 1010.8 |
| 20260903054510 | 75 | 69 | 1.0 | 0.0 | 0.00 | 0.10 | 0.00 | 83 | 1010.0 |
| 20260903054018 | 74 | 68 | 2.0 | 5.0 | 0.00 | 0.10 | 0.00 | 83 | 1010.8 |
| 20260903054011 | 75 | 68 | 3.0 | 0.0 | 0.00 | 0.10 | 0.00 | 83 | 1010.0 |
| 20260903053530 | 74 | 68 | 3.0 | 5.0 | 0.00 | 0.10 | 0.00 | 83 | 1010.7 |
| 20260903053511 | 75 | 68 | 2.0 | 0.0 | 0.00 | 0.10 | 0.00 | 83 | 1010.0 |
| 20260903053106 | 75 | 72 | 2.0 | 4.0 | 0.00 | 0.10 | 0.00 | 83 | 1010.8 |
| 20260903053010 | 75 | 72 | 3.0 | 0.0 | 0.00 | 0.10 | 0.00 | 83 | 1010.0 |
| 20260903052523 | 75 | 76 | 2.0 | 4.0 | 0.00 | 0.10 | 0.00 | 83 | 1010.9 |
| 20260903052510 | 75 | 76 | 4.0 | 0.0 | 0.00 | 0.10 | 0.00 | 83 | 1010.0 |
| 20260903052021 | 75 | 78 | 1.0 | 4.0 | 0.00 | 0.10 | 0.00 | 83 | 1010.9 |
| 20260903052010 | 75 | 78 | 2.0 | 0.0 | 0.00 | 0.10 | 0.00 | 82 | 1010.1 |
| 20260903051545 | 75 | 0 | 0.0 | 0.0 | 0.00 | 0.10 | 0.00 | 82 | 1010.9 |
| 20260903051021 | 75 | 0 | 0.0 | 0.0 | 0.00 | 0.10 | 0.00 | 82 | 1011.0 |
| 20260903051010 | 75 | 79 | 0.0 | 0.0 | 0.00 | 0.10 | 0.00 | 82 | 1010.2 |
| 20260903050520 | 75 | 0 | 0.0 | 0.0 | 0.00 | 0.10 | 0.00 | 82 | 1011.0 |
| 20260903050510 | 75 | 79 | 0.0 | 0.0 | 0.00 | 0.10 | 0.00 | 81 | 1010.2 |
| 20260903050045 | 75 | 0 | 0.0 | 0.0 | 0.00 | 0.10 | 0.00 | 82 | 1011.0 |
| 20260903050013 | 76 | 80 | 0.0 | 0.0 | 0.00 | 0.10 | 0.00 | 81 | 1010.3 |
| 20260903045520 | 75 | 0 | 0.0 | 0.0 | 0.00 | 0.10 | 0.10 | 82 | 1011.0 |
| 20260903045510 | 76 | 80 | 0.0 | 0.0 | 0.00 | 0.10 | 0.10 | 81 | 1010.3 |
| 20260903045021 | 75 | 0 | 0.0 | 0.0 | 0.00 | 0.10 | 0.10 | 81 | 1011.0 |
| 20260903045010 | 76 | 80 | 0.0 | 0.0 | 0.00 | 0.10 | 0.10 | 81 | 1010.2 |
| 20260903044550 | 75 | 0 | 0.0 | 0.0 | 0.00 | 0.10 | 0.10 | 81 | 1010.9 |
| 20260903044510 | 76 | 80 | 0.0 | 0.0 | 0.00 | 0.10 | 0.10 | 81 | 1010.3 |
| 20260903044019 | 75 | 0 | 0.0 | 0.0 | 0.00 | 0.10 | 0.10 | 82 | 1011.0 |
| 20260903044010 | 76 | 80 | 0.0 | 0.0 | 0.00 | 0.10 | 0.10 | 81 | 1010.3 |
| 20260903043525 | 75 | 0 | 0.0 | 0.0 | 0.00 | 0.10 | 0.10 | 81 | 1011.0 |
| 20260903043510 | 76 | 80 | 0.0 | 0.0 | 0.00 | 0.10 | 0.10 | 81 | 1010.2 |
| 20260903043047 | 75 | 0 | 0.0 | 0.0 | 0.00 | 0.10 | 0.10 | 81 | 1010.9 |
| 20260903043010 | 76 | 80 | 0.0 | 0.0 | 0.00 | 0.10 | 0.10 | 81 | 1010.2 |
| 20260903042521 | 76 | 0 | 0.0 | 2.0 | 0.00 | 0.10 | 0.10 | 81 | 1010.9 |
| 20260903042511 | 76 | 80 | 0.0 | 0.0 | 0.00 | 0.10 | 0.10 | 81 | 1010.2 |
| 20260903042022 | 76 | 0 | 0.0 | 3.0 | 0.00 | 0.10 | 0.10 | 81 | 1010.9 |
| 20260903042011 | 76 | 80 | 0.0 | 0.0 | 0.00 | 0.10 | 0.10 | 80 | 1010.2 |
| 20260903041550 | 76 | 0 | 0.0 | 3.0 | 0.00 | 0.10 | 0.10 | 81 | 1011.0 |
| 20260903041511 | 76 | 80 | 0.0 | 0.0 | 0.00 | 0.10 | 0.10 | 80 | 1010.3 |
| 20260903041020 | 76 | 80 | 1.0 | 3.0 | 0.00 | 0.10 | 0.10 | 80 | 1011.1 |
| 20260903041011 | 76 | 80 | 2.0 | 0.0 | 0.00 | 0.10 | 0.10 | 80 | 1010.3 |
| 20260903040520 | 76 | 0 | 0.0 | 0.0 | 0.00 | 0.10 | 0.10 | 81 | 1011.2 |
| 20260903040510 | 76 | 80 | 0.0 | 0.0 | 0.00 | 0.10 | 0.10 | 80 | 1010.5 |
| 20260903040043 | 76 | 0 | 0.0 | 0.0 | 0.00 | 0.10 | 0.10 | 81 | 1011.2 |
| 20260903040010 | 76 | 80 | 0.0 | 0.0 | 0.00 | 0.10 | 0.10 | 80 | 1010.5 |
| 20260903035519 | 76 | 0 | 0.0 | 0.0 | 0.00 | 0.10 | 0.10 | 81 | 1011.3 |
| 20260903035019 | 76 | 0 | 0.0 | 0.0 | 0.00 | 0.10 | 0.10 | 81 | 1011.2 |
| 20260903035011 | 77 | 80 | 0.0 | 0.0 | 0.00 | 0.10 | 0.10 | 80 | 1010.6 |
| 20260903034542 | 76 | 0 | 0.0 | 0.0 | 0.00 | 0.10 | 0.10 | 81 | 1011.2 |
| 20260903034510 | 77 | 80 | 0.0 | 0.0 | 0.00 | 0.10 | 0.10 | 80 | 1010.6 |
| 20260903034027 | 76 | 0 | 0.0 | 0.0 | 0.00 | 0.10 | 0.10 | 80 | 1011.3 |
| 20260903034011 | 77 | 80 | 0.0 | 0.0 | 0.00 | 0.10 | 0.10 | 80 | 1010.6 |
| 20260903033523 | 76 | 0 | 0.0 | 0.0 | 0.00 | 0.10 | 0.10 | 80 | 1011.2 |
| 20260903033510 | 77 | 80 | 0.0 | 0.0 | 0.00 | 0.10 | 0.10 | 80 | 1010.5 |
| 20260903033040 | 77 | 0 | 0.0 | 0.0 | 0.00 | 0.10 | 0.10 | 80 | 1011.2 |
| 20260903033010 | 77 | 80 | 0.0 | 0.0 | 0.00 | 0.10 | 0.10 | 80 | 1010.6 |
| 20260903032523 | 77 | 0 | 0.0 | 0.0 | 0.00 | 0.10 | 0.10 | 80 | 1011.2 |
| 20260903032022 | 77 | 0 | 0.0 | 0.0 | 0.00 | 0.10 | 0.10 | 80 | 1011.4 |
| 20260903031541 | 77 | 0 | 0.0 | 3.0 | 0.00 | 0.10 | 0.10 | 80 | 1011.3 |
| 20260903031019 | 77 | 0 | 0.0 | 3.0 | 0.00 | 0.10 | 0.10 | 80 | 1011.3 |
| 20260903030519 | 77 | 0 | 0.0 | 4.0 | 0.00 | 0.10 | 0.10 | 80 | 1011.2 |
| 20260903030510 | 78 | 80 | 0.0 | 0.0 | 0.00 | 0.10 | 0.10 | 80 | 1010.5 |
| 20260903030038 | 77 | 80 | 2.0 | 4.0 | 0.00 | 0.10 | 0.10 | 80 | 1011.2 |
| 20260903030011 | 78 | 80 | 1.0 | 0.0 | 0.00 | 0.10 | 0.10 | 80 | 1010.4 |
| 20260903025522 | 77 | 78 | 2.0 | 4.0 | 0.00 | 0.10 | 0.10 | 80 | 1011.2 |
| 20260903025510 | 78 | 78 | 2.0 | 0.0 | 0.00 | 0.10 | 0.10 | 80 | 1010.5 |
| 20260903025024 | 77 | 78 | 2.0 | 3.0 | 0.00 | 0.10 | 0.10 | 80 | 1011.2 |
| 20260903025010 | 78 | 78 | 1.0 | 0.0 | 0.00 | 0.10 | 0.10 | 80 | 1010.4 |
| 20260903024542 | 77 | 78 | 1.0 | 3.0 | 0.00 | 0.10 | 0.10 | 80 | 1011.3 |
| 20260903024510 | 78 | 78 | 3.0 | 0.0 | 0.00 | 0.10 | 0.10 | 80 | 1010.5 |
| 20260903024024 | 77 | 0 | 0.0 | 0.0 | 0.00 | 0.10 | 0.10 | 80 | 1011.3 |
| 20260903023521 | 78 | 0 | 0.0 | 0.0 | 0.00 | 0.10 | 0.10 | 79 | 1011.2 |
| 20260903023511 | 78 | 78 | 0.0 | 0.0 | 0.00 | 0.10 | 0.10 | 79 | 1010.5 |
| 20260903023041 | 78 | 0 | 0.0 | 0.0 | 0.00 | 0.10 | 0.10 | 78 | 1011.3 |
| 20260903022520 | 78 | 0 | 0.0 | 0.0 | 0.00 | 0.10 | 0.10 | 78 | 1011.3 |
| 20260903022510 | 78 | 78 | 0.0 | 0.0 | 0.00 | 0.10 | 0.10 | 78 | 1010.6 |
| 20260903022020 | 78 | 0 | 0.0 | 0.0 | 0.00 | 0.10 | 0.10 | 78 | 1011.3 |
| 20260903022010 | 79 | 78 | 0.0 | 0.0 | 0.00 | 0.10 | 0.10 | 77 | 1010.5 |
| 20260903021550 | 78 | 0 | 0.0 | 0.0 | 0.00 | 0.10 | 0.10 | 77 | 1011.3 |
| 20260903021511 | 79 | 78 | 0.0 | 0.0 | 0.00 | 0.10 | 0.10 | 77 | 1010.5 |
| 20260903021020 | 79 | 0 | 0.0 | 3.0 | 0.00 | 0.10 | 0.10 | 77 | 1011.2 |
| 20260903021011 | 79 | 78 | 0.0 | 0.0 | 0.00 | 0.10 | 0.10 | 77 | 1010.4 |
| 20260903020519 | 79 | 0 | 0.0 | 3.0 | 0.00 | 0.10 | 0.10 | 78 | 1011.2 |
| 20260903020510 | 79 | 78 | 0.0 | 0.0 | 0.00 | 0.10 | 0.10 | 77 | 1010.4 |
| 20260903020045 | 79 | 78 | 1.0 | 6.0 | 0.00 | 0.10 | 0.10 | 78 | 1011.2 |
| 20260903015520 | 79 | 79 | 2.0 | 7.0 | 0.00 | 0.10 | 0.10 | 77 | 1011.1 |
| 20260903015511 | 79 | 79 | 3.0 | 1.0 | 0.00 | 0.10 | 0.10 | 77 | 1010.3 |
| 20260903015025 | 79 | 76 | 2.0 | 7.0 | 0.00 | 0.10 | 0.10 | 77 | 1010.9 |
| 20260903015011 | 80 | 78 | 3.0 | 1.0 | 0.00 | 0.10 | 0.10 | 77 | 1010.1 |
| 20260903014547 | 79 | 78 | 2.0 | 6.0 | 0.00 | 0.10 | 0.10 | 77 | 1010.8 |
| 20260903014511 | 80 | 78 | 4.0 | 1.0 | 0.00 | 0.10 | 0.10 | 77 | 1010.0 |
| 20260903014021 | 79 | 111 | 0.0 | 3.0 | 0.00 | 0.10 | 0.10 | 77 | 1010.7 |
| 20260903013520 | 80 | 0 | 0.0 | 0.0 | 0.00 | 0.10 | 0.10 | 76 | 1010.7 |
| 20260903013511 | 80 | 128 | 0.0 | 0.0 | 0.00 | 0.10 | 0.10 | 76 | 1009.9 |
| 20260903013041 | 80 | 0 | 0.0 | 0.0 | 0.00 | 0.10 | 0.10 | 76 | 1010.7 |
| 20260903012523 | 80 | 0 | 0.0 | 0.0 | 0.00 | 0.10 | 0.10 | 74 | 1010.7 |
| 20260903012022 | 80 | 0 | 0.0 | 0.0 | 0.00 | 0.10 | 0.10 | 73 | 1010.6 |
| 20260903012011 | 81 | 168 | 0.0 | 0.0 | 0.00 | 0.10 | 0.10 | 72 | 1009.8 |
| 20260903011539 | 81 | 0 | 0.0 | 2.0 | 0.00 | 0.10 | 0.10 | 72 | 1010.4 |
| 20260903011511 | 81 | 168 | 0.0 | 0.0 | 0.00 | 0.10 | 0.10 | 72 | 1009.7 |
| 20260903011021 | 81 | 0 | 0.0 | 2.0 | 0.00 | 0.10 | 0.10 | 72 | 1010.3 |
| 20260903011011 | 81 | 168 | 0.0 | 0.0 | 0.00 | 0.10 | 0.10 | 71 | 1009.6 |
| 20260903010519 | 81 | 0 | 0.0 | 2.0 | 0.00 | 0.10 | 0.10 | 72 | 1010.4 |
| 20260903010511 | 82 | 168 | 0.0 | 0.0 | 0.00 | 0.10 | 0.10 | 71 | 1009.7 |
| 20260903010038 | 81 | 0 | 0.0 | 0.0 | 0.00 | 0.10 | 0.10 | 71 | 1010.3 |
| 20260903010011 | 82 | 195 | 0.0 | 0.0 | 0.00 | 0.10 | 0.10 | 70 | 1009.6 |
| 20260903005518 | 82 | 0 | 0.0 | 0.0 | 0.00 | 0.10 | 0.10 | 70 | 1010.4 |
| 20260903005510 | 82 | 195 | 0.0 | 0.0 | 0.00 | 0.10 | 0.10 | 70 | 1009.7 |
| 20260903005025 | 82 | 0 | 0.0 | 0.0 | 0.00 | 0.10 | 0.10 | 70 | 1010.3 |
| 20260903005011 | 82 | 195 | 0.0 | 0.0 | 0.00 | 0.10 | 0.10 | 69 | 1009.6 |
| 20260903004542 | 82 | 0 | 0.0 | 0.0 | 0.00 | 0.10 | 0.10 | 69 | 1010.2 |
| 20260903004019 | 82 | 0 | 0.0 | 0.0 | 0.00 | 0.10 | 0.10 | 69 | 1010.3 |
| 20260903004010 | 83 | 195 | 0.0 | 0.0 | 0.00 | 0.10 | 0.10 | 69 | 1009.7 |
| 20260903003526 | 83 | 0 | 0.0 | 0.0 | 0.00 | 0.10 | 0.10 | 69 | 1010.4 |
| 20260903003511 | 83 | 195 | 0.0 | 0.0 | 0.00 | 0.10 | 0.10 | 68 | 1009.7 |
| 20260903003043 | 83 | 0 | 0.0 | 0.0 | 0.00 | 0.10 | 0.10 | 68 | 1010.3 |
| 20260903003010 | 83 | 195 | 0.0 | 0.0 | 0.00 | 0.10 | 0.10 | 68 | 1009.6 |
| 20260903002521 | 83 | 0 | 0.0 | 0.0 | 0.00 | 0.10 | 0.10 | 67 | 1010.2 |
| 20260903002510 | 83 | 195 | 0.0 | 0.0 | 0.00 | 0.10 | 0.10 | 67 | 1009.5 |
| 20260903002019 | 83 | 0 | 0.0 | 0.0 | 0.00 | 0.10 | 0.10 | 67 | 1010.2 |
| 20260903002011 | 84 | 195 | 0.0 | 0.0 | 0.00 | 0.10 | 0.10 | 66 | 1009.5 |
| 20260903001538 | 83 | 0 | 0.0 | 0.0 | 0.00 | 0.10 | 0.10 | 66 | 1010.1 |
| 20260903001022 | 83 | 0 | 0.0 | 0.0 | 0.00 | 0.10 | 0.10 | 65 | 1010.2 |
| 20260903001010 | 84 | 195 | 0.0 | 0.0 | 0.00 | 0.10 | 0.10 | 64 | 1009.5 |
| 20260903000518 | 83 | 0 | 0.0 | 0.0 | 0.00 | 0.10 | 0.10 | 64 | 1010.1 |
| 20260903000510 | 84 | 195 | 0.0 | 0.0 | 0.00 | 0.10 | 0.10 | 64 | 1009.5 |
| 20260903000040 | 84 | 0 | 0.0 | 0.0 | 0.00 | 0.10 | 0.10 | 64 | 1010.3 |
| 20260903000011 | 84 | 195 | 0.0 | 0.0 | 0.00 | 0.10 | 0.10 | 63 | 1009.6 |
| 20260902235520 | 84 | 0 | 0.0 | 4.0 | 0.00 | 0.10 | 0.10 | 63 | 1010.3 |
| 20260902235510 | 84 | 195 | 0.0 | 0.0 | 0.00 | 0.10 | 0.10 | 63 | 1009.7 |
| 20260902235020 | 84 | 0 | 0.0 | 4.0 | 0.00 | 0.10 | 0.10 | 63 | 1010.4 |
| 20260902235010 | 84 | 195 | 0.0 | 0.0 | 0.00 | 0.10 | 0.10 | 63 | 1009.8 |
| 20260902234538 | 84 | 0 | 0.0 | 3.0 | 0.00 | 0.10 | 0.10 | 63 | 1010.5 |
| 20260902234510 | 84 | 195 | 0.0 | 0.0 | 0.00 | 0.10 | 0.10 | 63 | 1009.8 |
| 20260902234021 | 84 | 0 | 0.0 | 0.0 | 0.00 | 0.10 | 0.10 | 63 | 1010.4 |
| 20260902234010 | 84 | 201 | 0.0 | 0.0 | 0.00 | 0.10 | 0.10 | 63 | 1009.8 |
| 20260902233521 | 84 | 0 | 0.0 | 3.0 | 0.00 | 0.10 | 0.10 | 63 | 1010.4 |
| 20260902233510 | 84 | 211 | 0.0 | 0.0 | 0.00 | 0.10 | 0.10 | 63 | 1009.8 |
| 20260902233042 | 84 | 0 | 0.0 | 3.0 | 0.00 | 0.10 | 0.10 | 63 | 1010.5 |
| 20260902233011 | 84 | 211 | 0.0 | 0.0 | 0.00 | 0.10 | 0.10 | 62 | 1009.8 |
| 20260902232519 | 84 | 0 | 0.0 | 3.0 | 0.00 | 0.10 | 0.10 | 63 | 1010.6 |
| 20260902232510 | 84 | 211 | 0.0 | 0.0 | 0.00 | 0.10 | 0.10 | 62 | 1009.7 |
| 20260902232018 | 84 | 0 | 0.0 | 0.0 | 0.00 | 0.10 | 0.10 | 64 | 1010.5 |
| 20260902232011 | 84 | 180 | 0.0 | 0.0 | 0.00 | 0.10 | 0.10 | 63 | 1009.8 |
| 20260902231541 | 84 | 0 | 0.0 | 4.0 | 0.00 | 0.10 | 0.10 | 65 | 1010.4 |
| 20260902231511 | 84 | 180 | 0.0 | 0.0 | 0.00 | 0.10 | 0.10 | 65 | 1009.7 |
| 20260902231020 | 83 | 0 | 0.0 | 5.0 | 0.00 | 0.10 | 0.10 | 67 | 1010.4 |
| 20260902231011 | 84 | 180 | 0.0 | 0.0 | 0.00 | 0.10 | 0.10 | 66 | 1009.7 |
| 20260902230520 | 83 | 0 | 1.0 | 5.0 | 0.00 | 0.10 | 0.10 | 65 | 1010.4 |
| 20260902230510 | 84 | 180 | 0.0 | 0.0 | 0.00 | 0.10 | 0.10 | 65 | 1009.7 |
| 20260902230039 | 83 | 224 | 1.0 | 4.0 | 0.00 | 0.10 | 0.10 | 65 | 1010.4 |
| 20260902230011 | 83 | 224 | 1.0 | 0.0 | 0.00 | 0.10 | 0.10 | 64 | 1009.7 |
| 20260902225520 | 83 | 0 | 0.0 | 0.0 | 0.00 | 0.10 | 0.10 | 69 | 1010.5 |
| 20260902225510 | 83 | 58 | 0.0 | 0.0 | 0.00 | 0.10 | 0.10 | 69 | 1009.7 |
| 20260902225020 | 83 | 0 | 0.0 | 0.0 | 0.00 | 0.10 | 0.10 | 69 | 1010.5 |
| 20260902225010 | 83 | 58 | 0.0 | 0.0 | 0.00 | 0.10 | 0.10 | 68 | 1009.7 |
| 20260902224543 | 83 | 0 | 0.0 | 0.0 | 0.00 | 0.10 | 0.10 | 70 | 1010.5 |
| 20260902224510 | 83 | 57 | 0.0 | 0.0 | 0.00 | 0.10 | 0.10 | 69 | 1009.7 |
| 20260902224023 | 83 | 0 | 0.0 | 0.0 | 0.00 | 0.10 | 0.10 | 68 | 1010.4 |
| 20260902224010 | 83 | 57 | 0.0 | 0.0 | 0.00 | 0.10 | 0.10 | 67 | 1009.7 |
| 20260902223521 | 83 | 0 | 0.0 | 0.0 | 0.00 | 0.10 | 0.10 | 69 | 1010.4 |
| 20260902223511 | 83 | 57 | 0.0 | 0.0 | 0.00 | 0.10 | 0.10 | 68 | 1009.7 |
| 20260902223042 | 83 | 0 | 0.0 | 0.0 | 0.00 | 0.10 | 0.10 | 70 | 1010.4 |
| 20260902223010 | 83 | 57 | 0.0 | 0.0 | 0.00 | 0.10 | 0.10 | 69 | 1009.7 |
| 20260902222524 | 83 | 0 | 0.0 | 0.0 | 0.00 | 0.10 | 0.10 | 69 | 1010.5 |
| 20260902222511 | 83 | 57 | 0.0 | 0.0 | 0.00 | 0.10 | 0.10 | 68 | 1009.7 |
| 20260902222022 | 83 | 0 | 0.0 | 0.0 | 0.00 | 0.10 | 0.10 | 66 | 1010.6 |
| 20260902222011 | 83 | 57 | 0.0 | 0.0 | 0.00 | 0.10 | 0.10 | 66 | 1009.7 |
| 20260902221544 | 83 | 0 | 0.0 | 0.0 | 0.00 | 0.10 | 0.10 | 65 | 1010.6 |
| 20260902221511 | 83 | 57 | 0.0 | 0.0 | 0.00 | 0.10 | 0.10 | 64 | 1009.7 |
| 20260902221020 | 83 | 0 | 0.0 | 0.0 | 0.00 | 0.10 | 0.10 | 67 | 1010.6 |
| 20260902221011 | 83 | 57 | 0.0 | 0.0 | 0.00 | 0.10 | 0.10 | 67 | 1009.7 |
| 20260902220520 | 83 | 0 | 0.0 | 0.0 | 0.00 | 0.10 | 0.10 | 65 | 1010.6 |
| 20260902220045 | 83 | 0 | 0.0 | 0.0 | 0.00 | 0.10 | 0.10 | 65 | 1010.6 |
| 20260902220010 | 83 | 56 | 0.0 | 0.0 | 0.00 | 0.10 | 0.10 | 64 | 1009.7 |
| 20260902215517 | 83 | 0 | 0.0 | 3.0 | 0.00 | 0.10 | 0.10 | 65 | 1010.5 |
| 20260902215019 | 83 | 0 | 0.0 | 3.0 | 0.00 | 0.10 | 0.10 | 63 | 1010.6 |
| 20260902215011 | 83 | 56 | 0.0 | 0.0 | 0.00 | 0.10 | 0.10 | 65 | 1009.8 |
| 20260902214548 | 82 | 55 | 0.0 | 3.0 | 0.00 | 0.10 | 0.10 | 63 | 1010.6 |
| 20260902214023 | 82 | 0 | 0.0 | 3.0 | 0.00 | 0.10 | 0.10 | 65 | 1010.7 |
| 20260902214011 | 83 | 69 | 0.0 | 0.0 | 0.00 | 0.10 | 0.10 | 64 | 1009.8 |
| 20260902213518 | 82 | 69 | 1.0 | 3.0 | 0.00 | 0.10 | 0.10 | 66 | 1010.7 |
| 20260902213511 | 83 | 69 | 0.0 | 0.0 | 0.00 | 0.10 | 0.10 | 66 | 1009.9 |
| 20260902213042 | 82 | 70 | 1.0 | 3.0 | 0.00 | 0.10 | 0.10 | 66 | 1010.8 |
| 20260902213011 | 83 | 70 | 3.0 | 0.0 | 0.00 | 0.10 | 0.10 | 66 | 1009.9 |
| 20260902212520 | 82 | 70 | 0.0 | 3.0 | 0.00 | 0.10 | 0.10 | 69 | 1010.7 |
| 20260902212511 | 83 | 70 | 1.0 | 0.0 | 0.00 | 0.10 | 0.10 | 69 | 1009.9 |
| 20260902212019 | 82 | 0 | 0.0 | 2.0 | 0.00 | 0.10 | 0.10 | 68 | 1010.8 |
| 20260902212011 | 83 | 72 | 0.0 | 0.0 | 0.00 | 0.10 | 0.10 | 67 | 1010.0 |
| 20260902211548 | 82 | 0 | 0.0 | 3.0 | 0.00 | 0.10 | 0.10 | 67 | 1010.8 |
| 20260902211021 | 82 | 73 | 1.0 | 3.0 | 0.00 | 0.10 | 0.10 | 67 | 1010.8 |
| 20260902211011 | 83 | 72 | 1.0 | 0.0 | 0.00 | 0.10 | 0.10 | 66 | 1010.0 |
| 20260902210520 | 82 | 73 | 1.0 | 4.0 | 0.00 | 0.10 | 0.10 | 68 | 1010.8 |
| 20260902210511 | 83 | 73 | 2.0 | 0.0 | 0.00 | 0.10 | 0.10 | 67 | 1010.0 |
| 20260902210107 | 82 | 74 | 2.0 | 4.0 | 0.00 | 0.10 | 0.10 | 67 | 1010.7 |
| 20260902210011 | 83 | 74 | 2.0 | 0.0 | 0.00 | 0.10 | 0.10 | 67 | 1010.0 |
| 20260902205518 | 82 | 74 | 2.0 | 4.0 | 0.00 | 0.10 | 0.10 | 68 | 1010.9 |
| 20260902205510 | 83 | 74 | 2.0 | 0.0 | 0.00 | 0.10 | 0.10 | 67 | 1010.1 |
| 20260902205021 | 82 | 74 | 2.0 | 5.0 | 0.00 | 0.10 | 0.10 | 68 | 1010.9 |
| 20260902205011 | 83 | 74 | 2.0 | 0.0 | 0.00 | 0.10 | 0.10 | 68 | 1010.1 |
| 20260902204543 | 82 | 72 | 2.0 | 5.0 | 0.00 | 0.10 | 0.10 | 66 | 1010.8 |
| 20260902204511 | 83 | 72 | 2.0 | 0.0 | 0.00 | 0.10 | 0.10 | 66 | 1010.1 |
| 20260902204024 | 83 | 72 | 2.0 | 5.0 | 0.00 | 0.10 | 0.10 | 69 | 1011.0 |
| 20260902204011 | 83 | 72 | 2.0 | 0.0 | 0.00 | 0.10 | 0.10 | 66 | 1010.1 |
| 20260902203521 | 83 | 67 | 2.0 | 4.0 | 0.00 | 0.10 | 0.10 | 66 | 1011.0 |
| 20260902203044 | 83 | 65 | 1.0 | 3.0 | 0.00 | 0.10 | 0.10 | 68 | 1011.0 |
| 20260902202521 | 83 | 66 | 2.0 | 3.0 | 0.00 | 0.10 | 0.10 | 69 | 1011.1 |
| 20260902202511 | 83 | 66 | 2.0 | 0.0 | 0.00 | 0.10 | 0.10 | 68 | 1010.2 |
| 20260902202018 | 83 | 0 | 0.0 | 3.0 | 0.00 | 0.10 | 0.10 | 69 | 1011.2 |
| 20260902202011 | 83 | 68 | 1.0 | 0.0 | 0.00 | 0.10 | 0.10 | 68 | 1010.3 |
| 20260902201539 | 83 | 0 | 1.0 | 3.0 | 0.00 | 0.10 | 0.10 | 69 | 1011.3 |
| 20260902201511 | 83 | 68 | 0.0 | 0.0 | 0.00 | 0.10 | 0.10 | 69 | 1010.5 |
| 20260902201018 | 83 | 68 | 1.0 | 3.0 | 0.00 | 0.10 | 0.10 | 69 | 1011.4 |
| 20260902201011 | 84 | 68 | 3.0 | 0.0 | 0.00 | 0.10 | 0.10 | 68 | 1010.5 |
| 20260902200519 | 83 | 68 | 2.0 | 3.0 | 0.00 | 0.10 | 0.10 | 65 | 1011.5 |
| 20260902200038 | 83 | 67 | 2.0 | 4.0 | 0.00 | 0.10 | 0.10 | 68 | 1011.6 |
| 20260902200011 | 84 | 67 | 2.0 | 0.0 | 0.00 | 0.10 | 0.10 | 67 | 1010.8 |
| 20260902195521 | 83 | 67 | 2.0 | 4.0 | 0.00 | 0.10 | 0.10 | 65 | 1011.6 |
| 20260902195511 | 84 | 67 | 2.0 | 0.0 | 0.00 | 0.10 | 0.10 | 65 | 1010.9 |
| 20260902195019 | 83 | 67 | 0.0 | 4.0 | 0.00 | 0.10 | 0.10 | 65 | 1011.7 |
| 20260902194543 | 84 | 0 | 1.0 | 4.0 | 0.00 | 0.10 | 0.10 | 65 | 1011.7 |